TimeAKDT,TemperatureF,Dew PointF,Humidity,Sea Level PressureIn,VisibilityMPH,Wind Direction,Wind SpeedMPH,Gust SpeedMPH,PrecipitationIn,Events,Conditions,WindDirDegrees,DateUTC
12:22 AM,21.2,19.4,93,29.31,2.0,NNW,5.8,-,0.01,Snow,Light Snow,330,2012-10-16 08:22:00
12:53 AM,21.9,19.0,89,29.36,2.0,NNW,6.9,-,0.01,Snow,Light Snow,330,2012-10-16 08:53:00
1:00 AM,21.2,19.4,93,29.31,5.0,NNW,5.8,-,0.00,Snow,Light Snow,340,2012-10-16 09:00:00
1:53 AM,21.9,19.0,89,29.37,4.0,NNW,5.8,-,0.00,Snow,Light Snow,330,2012-10-16 09:53:00
2:53 AM,21.9,19.0,89,29.38,6.0,NNW,5.8,-,0.01,Snow,Light Snow,340,2012-10-16 10:53:00
3:53 AM,23.0,19.0,85,29.39,7.0,North,6.9,-,0.00,,Overcast,350,2012-10-16 11:53:00
4:45 AM,24.8,17.6,74,29.37,4.0,North,9.2,-,0.00,Snow,Light Snow,10,2012-10-16 12:45:00
4:53 AM,24.1,19.0,81,29.42,3.0,NNE,9.2,-,0.00,Snow,Light Snow,20,2012-10-16 12:53:00
5:43 AM,24.8,15.8,69,29.38,8.0,North,9.2,-,0.00,Snow,Light Snow,10,2012-10-16 13:43:00
5:53 AM,25.0,16.0,69,29.43,8.0,North,6.9,-,0.00,Snow,Light Snow,360,2012-10-16 13:53:00
6:53 AM,23.0,19.0,85,29.45,8.0,Calm,Calm,-,0.00,Snow,Light Snow,0,2012-10-16 14:53:00
7:53 AM,24.1,17.1,75,29.45,6.0,North,12.7,17.3,0.00,Snow,Light Snow,10,2012-10-16 15:53:00
8:53 AM,24.1,17.1,75,29.47,10.0,NNW,10.4,-,0.00,,Overcast,340,2012-10-16 16:53:00
9:53 AM,26.1,16.0,66,29.49,10.0,North,10.4,20.7,N/A,,Overcast,10,2012-10-16 17:53:00
10:53 AM,26.1,16.0,66,29.51,10.0,NNE,8.1,-,0.00,Snow,Light Snow,20,2012-10-16 18:53:00
11:53 AM,26.1,18.0,71,29.52,10.0,NNE,5.8,-,0.00,,Overcast,20,2012-10-16 19:53:00
12:53 PM,27.0,18.0,69,29.53,10.0,North,9.2,17.3,0.00,Snow,Light Snow,360,2012-10-16 20:53:00
1:53 PM,28.0,17.1,63,29.55,10.0,North,10.4,-,0.00,,Overcast,10,2012-10-16 21:53:00
2:53 PM,28.9,17.1,61,29.56,10.0,North,8.1,-,N/A,,Overcast,10,2012-10-16 22:53:00
3:53 PM,28.9,18.0,64,29.58,10.0,NNE,6.9,-,N/A,,Overcast,20,2012-10-16 23:53:00
4:53 PM,28.9,18.0,64,29.59,10.0,North,4.6,-,N/A,,Overcast,10,2012-10-17 00:53:00
5:53 PM,28.9,19.0,67,29.60,10.0,Calm,Calm,-,N/A,,Overcast,0,2012-10-17 01:53:00
6:53 PM,28.9,16.0,58,29.61,10.0,NNW,3.5,-,N/A,,Overcast,330,2012-10-17 02:53:00
7:53 PM,28.9,15.1,56,29.62,10.0,NNW,4.6,-,N/A,,Overcast,340,2012-10-17 03:53:00
8:53 PM,30.0,15.1,54,29.62,10.0,North,5.8,-,N/A,,Overcast,360,2012-10-17 04:53:00
9:53 PM,30.0,15.1,54,29.64,10.0,NW,3.5,-,N/A,,Overcast,320,2012-10-17 05:53:00
10:53 PM,28.9,15.1,56,29.65,10.0,Calm,Calm,-,N/A,,Overcast,0,2012-10-17 06:53:00
11:53 PM,30.0,15.1,54,29.67,10.0,NNE,4.6,-,N/A,,Overcast,30,2012-10-17 07:53:00